Weather History for London-Corbin, KY

Change the Weather History Date:

Friday, March 15, 2013

  Actual Average Record
Temperature  
Mean Temperature 48 °F 47 °F  
Max Temperature 66 °F 58 °F 84 °F (1977)
Min Temperature 29 °F 36 °F 1 °F (1993)
Degree Days  
Heating Degree Days 17 18  
Month to date heating degree days 405 299  
Since 1 July heating degree days 3753 3575  
Cooling Degree Days 0 0  
Month to date cooling degree days 0 0  
Year to date cooling degree days 0 0  
Moisture  
Dew Point 31 °F    
Average Humidity 56    
Maximum Humidity 78    
Minimum Humidity 34    
Precipitation  
Precipitation T in 0.13 in 0.99 in (1982)
Month to date precipitation 2.37 1.96  
Year to date precipitation 9.16 9.21  
Sea Level Pressure  
Sea Level Pressure 30.03 in    
Wind  
Wind Speed 5 mph (SW)    
Max Wind Speed 14 mph    
Max Gust Speed 21 mph    
Visibility 10 miles    
Events      
T = Trace of Precipitation, MM = Missing Value Source: NWS Daily Summary

Daily Weather History Graph

Daily Weather History Graph

Search for Another Location

Airport:

Trip Planner

Search our weather history database for the weather conditions in past years. The results will help you decide how hot, cold, wet, or windy it might be!

Date:

Astronomy

Mar. 15, 2013 Rise Set
Actual Time 7:46 AM EDT 7:43 PM EDT
Civil Twilight 7:21 AM EDT 8:09 PM EDT
Nautical Twilight 6:50 AM EDT 8:39 PM EDT
Astronomical Twilight 6:20 AM EDT 9:10 PM EDT
Moon 9:42 AM EDT (3/15) 11:50 PM EDT (3/15)
Length of Visible Light 12h 48m
Length of Day
11h 56m
Waxing Crescent, 15% of the Moon is Illuminated
Mar 15
Waxing Crescent
Mar 19
First Quarter
Mar 27
Full
Apr 3
Last Quarter
Apr 10
New

Hourly Weather History & Observations

Time (EDT) Temp. Windchill Dew Point Humidity Pressure Visibility Wind Dir Wind Speed Gust Speed Precip Events Conditions
12:53 AM 36.0 °F 33.3 °F 24.1 °F 62% 30.24 in 10.0 mi South 3.5 mph - N/A   Overcast
1:53 AM 36.0 °F 33.3 °F 25.0 °F 64% 30.21 in 10.0 mi South 3.5 mph - N/A   Mostly Cloudy
2:53 AM 34.0 °F - 25.0 °F 70% 30.20 in 10.0 mi Calm Calm - N/A   Partly Cloudy
3:53 AM 30.9 °F - 25.0 °F 79% 30.18 in 10.0 mi Calm Calm - N/A   Clear
4:53 AM 30.9 °F - 24.1 °F 76% 30.14 in 10.0 mi Calm Calm - N/A   Clear
5:53 AM 30.0 °F - 24.1 °F 79% 30.14 in 10.0 mi Calm Calm - N/A   Clear
6:53 AM 30.0 °F - 24.1 °F 79% 30.13 in 10.0 mi Calm Calm - N/A   Clear
7:53 AM 30.0 °F - 24.1 °F 79% 30.12 in 10.0 mi Calm Calm - N/A   Clear
8:53 AM 35.1 °F - 27.0 °F 72% 30.10 in 10.0 mi Calm Calm - N/A   Clear
9:53 AM 41.0 °F 38.0 °F 28.9 °F 62% 30.08 in 10.0 mi South 4.6 mph - N/A   Clear
10:53 AM 48.9 °F - 30.0 °F 48% 30.07 in 10.0 mi SW 8.1 mph - N/A   Clear
11:53 AM 52.0 °F - 30.9 °F 45% 30.04 in 10.0 mi SW 10.4 mph 16.1 mph N/A   Clear
12:53 PM 54.0 °F - 32.0 °F 43% 30.02 in 10.0 mi SSW 9.2 mph - N/A   Clear
1:53 PM 57.0 °F - 33.1 °F 40% 30.00 in 10.0 mi SW 9.2 mph - N/A   Clear
2:53 PM 61.0 °F - 34.0 °F 36% 29.96 in 10.0 mi SW 10.4 mph 17.3 mph N/A   Clear
3:53 PM 64.9 °F - 35.1 °F 33% 29.93 in 10.0 mi West 13.8 mph 18.4 mph N/A   Clear
4:53 PM 64.9 °F - 37.0 °F 36% 29.92 in 10.0 mi West 10.4 mph 20.7 mph N/A   Clear
5:53 PM 64.9 °F - 37.0 °F 36% 29.91 in 10.0 mi WSW 10.4 mph 17.3 mph N/A   Clear
6:53 PM 64.0 °F - 37.9 °F 38% 29.89 in 10.0 mi WSW 8.1 mph - N/A   Clear
7:53 PM 62.1 °F - 37.9 °F 41% 29.91 in 10.0 mi WSW 3.5 mph - N/A   Clear
8:53 PM 60.1 °F - 37.9 °F 44% 29.90 in 10.0 mi SW 3.5 mph - N/A   Clear
9:53 PM 54.0 °F - 39.0 °F 57% 29.89 in 10.0 mi Calm Calm - N/A   Overcast
10:53 PM 52.0 °F - 39.0 °F 61% 29.87 in 10.0 mi Calm Calm - N/A   Overcast
11:53 PM 52.0 °F - 41.0 °F 66% 29.85 in 10.0 mi Calm Calm - N/A   Overcast